Back to catalog

KUIPER-00072

AliveCommunicationsLEO
NORAD 64819·PAYLOAD·🇺🇸 United States

Launched Jul 16, 2025 from Cape Canaveral Space Force Station

Loading…

Next Passes (next 24 hours)

TLE

FreshSource: CelesTrak SupGP

Epoch: Sep 14, 2026, 15:44 UTC

1 64819C 25151D   26257.65565972 -.00015252  00000+0 -19965-2 0  2574
2 64819  51.8962 167.4165 0001074  79.5396 258.0400 14.79947310    17

Track KUIPER-00072 in real time with AllMySat

Download on the App Store